Regional Weather Roundup
Issued by NWS

Home | Current Version | Previous Version | Text Only | Print | Product List | Glossary Off
Versions: 1 2 3 4 5 6 7 8 9 10 11 12 13 14 15 16 17 18 19 20 21 22 23 24 25 26 27 28 29 30 31 32 33 34 35 36 37 38 39 40 41 42 43 44 45 46 47 48 49 50

000
ASUS45 KABQ 222310
RWRNM
NEW MEXICO REGIONAL WEATHER ROUNDUP
NATIONAL WEATHER SERVICE ALBUQUERQUE NM
500 PM MDT SUN APR 22 2018

NOTE: "FAIR" MEANS FEW OR NO CLOUDS BELOW 12,000 FEET AGL WITH NO
       SIGNIFICANT WEATHER OR OBSTRUCTIONS TO VISION.

      THIS PRODUCT IS RELEASED AS TWO VERSIONS.  ONE VERSION NEAR
      THE TOP OF THE HOUR CONTAINING PRELIMINARY DATA FROM ALBUQUERQUE
      AND OTHER STATIONS.  A FINAL VERSION WITH ADDITIONAL DATA IS
      ISSUED ABOUT 10 MINUTES AFTER THE HOUR.

NMZ501-503-504-510>518-230000-
NORTHWEST PLATEAU/NORTHCENTRAL MOUNTAINS

CITY           SKY/WX    TMP DP  RH WIND       PRES   REMARKS
FARMINGTON     FAIR      72  15  11 SW5G17    30.02F
LOS ALAMOS     FAIR      65  15  14 S8        30.14F
SANTA FE       FAIR      70   9   9 W9G17     30.08F
TAOS           FAIR      68   8   9 W3        30.12F
ANGEL FIRE     PTSUNNY   56  23  27 SE13G20   30.19R

$$
NMZ402-403-502-505>509-230000-
WESTCENTRAL MOUNTAINS/SOUTHWEST MOUNTAINS

CITY           SKY/WX    TMP DP  RH WIND       PRES   REMARKS
GALLUP         FAIR      72  12  10 N7        30.08F
GRANTS         PTSUNNY   71  16  12 W10       30.08S
SILVER CITY    FAIR      74  23  15 SE9       30.07F

$$
NMZ407-409-411-412-230000-
SOUTHERN DESERTS

CITY           SKY/WX    TMP DP  RH WIND       PRES   REMARKS
DEMING         FAIR      80  27  14 N7        30.01F
LAS CRUCES     FAIR      77  26  15 SE8       30.05F
HOLLOMAN AFB   FAIR      77  27  16 S9        30.06F
ALAMOGORDO     FAIR      73  30  20 S7        30.06F
T OR C         FAIR      75  20  12 S13       30.02F

$$
NMZ519>523-230000-
CENTRAL VALLEYS/CENTRAL HIGHLANDS

CITY           SKY/WX    TMP DP  RH WIND       PRES   REMARKS
ALBUQUERQUE    PTSUNNY   74  20  13 VRB3      30.04F
DOUBLE EAGLE   PTSUNNY   72  21  15 VRB6      30.08F
MORIARTY ARPT  FAIR      73  24  16 S8        30.10S
CLINES CORNERS FAIR      66  22  18 W8        30.15F
BELEN          FAIR      73  24  16 SE9       30.05F
SOCORRO        FAIR      74  22  14 SE15      30.04F

$$
NMZ524>526-539-540-230000-
SOUTHCENTRAL MOUNTAINS

CITY           SKY/WX    TMP DP  RH WIND       PRES   REMARKS
RUIDOSO        FAIR      63  30  29 SE15      30.17S

$$
NMZ527>531-230000-
NORTHEAST HIGHLANDS/NORTHEAST PLAINS

CITY           SKY/WX    TMP DP  RH WIND       PRES   REMARKS
LAS VEGAS      FAIR      63  26  24 SE12      30.14S
RATON          FAIR      65  23  20 VRB6G23   30.11R
CLAYTON        FAIR      56  40  55 NE7       30.13S

$$
NMZ532>537-230000-
EASTCENTRAL PLAINS

CITY           SKY/WX    TMP DP  RH WIND       PRES   REMARKS
SANTA ROSA     FAIR      68  26  20 SE8       30.06F
TUCUMCARI      FAIR      69  40  34 E15       30.06S
CANNON AFB     FAIR      68  34  28 NW5       30.10S
CLOVIS AIRPORT FAIR      67  35  30 W5        30.10S

$$
NMZ028-029-538-230000-
SOUTHEAST PLAINS

CITY           SKY/WX    TMP DP  RH WIND       PRES   REMARKS
ROSWELL        FAIR      71  36  27 S12       30.05F
ARTESIA        FAIR      70  37  30 SE14      30.05F
CARLSBAD       FAIR      70  39  32 S9G18     30.04F
HOBBS          SUNNY     70  34  26 S8        30.08F


$$




USA.gov is the U.S. government's official web portal to all federal, state and local government web resources and services.